Time,TemperatureF,DewpointF,PressureIn,WindDirection,WindDirectionDegrees,WindSpeedMPH,WindSpeedGustMPH,Humidity,HourlyPrecipIn,Conditions,Clouds,dailyrainin,SolarRadiationWatts/m^2,SoftwareType,DateUTC
2013-06-01 00:10:00,76.3,74.0,29.83,SSE,161,0.0,-999.0,91,-99.99,,,0.00,0,weatherlink.com 1.10,2013-06-01 05:10:00,
2013-06-01 00:25:00,76.0,73.0,29.84,SSE,161,0.0,-999.0,91,-99.99,,,0.00,0,weatherlink.com 1.10,2013-06-01 05:25:00,
2013-06-01 00:40:00,75.8,73.0,29.84,SSE,161,0.0,-999.0,92,-99.99,,,0.00,0,weatherlink.com 1.10,2013-06-01 05:40:00,
2013-06-01 00:55:00,75.9,74.0,29.83,SSE,161,1.0,-999.0,92,-99.99,,,0.00,0,weatherlink.com 1.10,2013-06-01 05:55:00,
2013-06-01 01:10:00,75.9,74.0,29.83,SSE,161,0.0,-999.0,92,-99.99,,,0.00,0,weatherlink.com 1.10,2013-06-01 06:10:00,
2013-06-01 01:25:00,75.9,74.0,29.82,SSE,161,0.0,-999.0,92,-99.99,,,0.00,0,weatherlink.com 1.10,2013-06-01 06:25:00,
2013-06-01 01:40:00,76.0,74.0,29.80,SSE,161,0.0,-999.0,92,-99.99,,,0.00,0,weatherlink.com 1.10,2013-06-01 06:40:00,
2013-06-01 01:55:00,76.1,74.0,29.78,SSE,161,0.0,-999.0,92,-99.99,,,0.00,0,weatherlink.com 1.10,2013-06-01 06:55:00,
2013-06-01 02:10:00,76.2,74.0,29.78,SSE,161,0.0,-999.0,91,-99.99,,,0.00,0,weatherlink.com 1.10,2013-06-01 07:10:00,
2013-06-01 02:25:00,76.0,74.0,29.79,SSE,161,6.0,-999.0,92,-99.99,,,0.00,0,weatherlink.com 1.10,2013-06-01 07:25:00,
2013-06-01 02:40:00,76.2,74.0,29.81,South,173,0.0,-999.0,91,-99.99,,,0.00,0,weatherlink.com 1.10,2013-06-01 07:40:00,
2013-06-01 02:55:00,76.4,74.0,29.79,South,173,0.0,-999.0,91,-99.99,,,0.00,0,weatherlink.com 1.10,2013-06-01 07:55:00,
2013-06-01 03:10:00,76.5,74.0,29.81,South,173,0.0,-999.0,90,-99.99,,,0.00,0,weatherlink.com 1.10,2013-06-01 08:10:00,
2013-06-01 03:25:00,76.5,74.0,29.80,South,173,0.0,-999.0,90,-99.99,,,0.00,0,weatherlink.com 1.10,2013-06-01 08:25:00,
2013-06-01 03:40:00,76.7,74.0,29.78,South,173,0.0,-999.0,90,-99.99,,,0.00,0,weatherlink.com 1.10,2013-06-01 08:40:00,
2013-06-01 03:55:00,76.6,74.0,29.79,South,173,0.0,-999.0,90,-99.99,,,0.00,0,weatherlink.com 1.10,2013-06-01 08:55:00,
2013-06-01 04:10:00,71.3,66.0,29.81,NW,326,19.0,-999.0,84,-99.99,,,0.21,0,weatherlink.com 1.10,2013-06-01 09:10:00,
2013-06-01 04:25:00,67.0,64.0,29.82,West,278,1.0,-999.0,89,-99.99,,,0.46,0,weatherlink.com 1.10,2013-06-01 09:25:00,
2013-06-01 04:41:00,66.5,64.0,29.83,SW,229,0.0,-999.0,92,-99.99,,,0.47,0,weatherlink.com 1.10,2013-06-01 09:41:00,
2013-06-01 04:55:00,66.2,64.0,29.83,West,267,0.0,-999.0,93,-99.99,,,0.48,0,weatherlink.com 1.10,2013-06-01 09:55:00,
2013-06-01 05:10:00,66.2,65.0,29.84,WSW,257,0.0,-999.0,94,-99.99,,,0.50,0,weatherlink.com 1.10,2013-06-01 10:10:00,
2013-06-01 05:25:00,66.1,64.0,29.87,WSW,257,0.0,-999.0,94,-99.99,,,0.52,0,weatherlink.com 1.10,2013-06-01 10:25:00,
2013-06-01 05:40:00,65.9,64.0,29.84,WSW,257,0.0,-999.0,94,-99.99,,,0.54,0,weatherlink.com 1.10,2013-06-01 10:40:00,
2013-06-01 05:55:00,65.8,64.0,29.84,WSW,257,0.0,-999.0,95,-99.99,,,0.57,0,weatherlink.com 1.10,2013-06-01 10:55:00,
2013-06-01 06:10:00,65.7,64.0,29.85,WSW,257,0.0,-999.0,95,-99.99,,,0.58,0,weatherlink.com 1.10,2013-06-01 11:10:00,
2013-06-01 06:25:00,65.7,65.0,29.86,WSW,257,0.0,-999.0,96,-99.99,,,0.59,0,weatherlink.com 1.10,2013-06-01 11:25:00,
2013-06-01 06:40:00,65.7,65.0,29.89,WSW,248,0.0,-999.0,96,-99.99,,,0.66,0,weatherlink.com 1.10,2013-06-01 11:40:00,
2013-06-01 06:55:00,65.7,65.0,29.89,WSW,248,0.0,-999.0,96,-99.99,,,0.70,0,weatherlink.com 1.10,2013-06-01 11:55:00,
2013-06-01 07:10:00,65.7,65.0,29.91,WSW,248,0.0,-999.0,96,-99.99,,,0.72,0,weatherlink.com 1.10,2013-06-01 12:10:00,
2013-06-01 07:26:00,65.8,65.0,29.93,WSW,248,0.0,-999.0,96,-99.99,,,0.76,16,weatherlink.com 1.10,2013-06-01 12:26:00,
2013-06-01 07:41:00,65.9,65.0,29.94,WSW,248,0.0,-999.0,96,-99.99,,,0.77,7,weatherlink.com 1.10,2013-06-01 12:41:00,
2013-06-01 07:56:00,66.0,65.0,29.94,WSW,250,0.0,-999.0,96,-99.99,,,0.84,12,weatherlink.com 1.10,2013-06-01 12:56:00,
2013-06-01 08:11:00,65.8,65.0,29.92,WSW,250,0.0,-999.0,97,-99.99,,,0.87,25,weatherlink.com 1.10,2013-06-01 13:11:00,
2013-06-01 08:26:00,65.5,64.0,29.89,WSW,250,0.0,-999.0,96,-99.99,,,0.89,18,weatherlink.com 1.10,2013-06-01 13:26:00,
2013-06-01 08:41:00,65.7,65.0,29.89,WSW,250,2.0,-999.0,97,-99.99,,,0.91,18,weatherlink.com 1.10,2013-06-01 13:41:00,
2013-06-01 08:56:00,65.6,65.0,29.88,SW,216,0.0,-999.0,97,-99.99,,,0.93,23,weatherlink.com 1.10,2013-06-01 13:56:00,
2013-06-01 09:12:00,65.4,65.0,29.86,SSE,155,2.0,-999.0,97,-99.99,,,0.96,23,weatherlink.com 1.10,2013-06-01 14:12:00,
2013-06-01 09:26:00,65.3,65.0,29.82,SSE,167,5.0,-999.0,97,-99.99,,,0.98,21,weatherlink.com 1.10,2013-06-01 14:26:00,
2013-06-01 09:41:00,65.2,64.0,29.82,SE,142,5.0,-999.0,97,-99.99,,,0.99,18,weatherlink.com 1.10,2013-06-01 14:41:00,
2013-06-01 09:56:00,65.3,65.0,29.82,SSE,165,18.0,-999.0,97,-99.99,,,1.01,18,weatherlink.com 1.10,2013-06-01 14:56:00,
2013-06-01 10:11:00,65.2,64.0,29.80,SSE,156,6.0,-999.0,97,-99.99,,,1.03,19,weatherlink.com 1.10,2013-06-01 15:11:00,
2013-06-01 10:26:00,65.2,64.0,29.73,SE,144,7.0,-999.0,97,-99.99,,,1.05,26,weatherlink.com 1.10,2013-06-01 15:26:00,
2013-06-01 10:41:00,65.0,64.0,29.77,SSE,154,2.0,-999.0,97,-99.99,,,1.06,47,weatherlink.com 1.10,2013-06-01 15:41:00,
2013-06-01 10:56:00,65.2,64.0,29.89,WNW,292,13.0,-999.0,97,-99.99,,,1.06,16,weatherlink.com 1.10,2013-06-01 15:56:00,
2013-06-01 11:11:00,65.0,64.0,29.87,WNW,289,0.0,-999.0,97,-99.99,,,1.06,49,weatherlink.com 1.10,2013-06-01 16:11:00,
2013-06-01 11:26:00,65.2,64.0,29.90,WNW,287,0.0,-999.0,97,-99.99,,,1.06,37,weatherlink.com 1.10,2013-06-01 16:26:00,
2013-06-01 11:41:00,65.3,65.0,29.90,West,270,0.0,-999.0,97,-99.99,,,1.06,83,weatherlink.com 1.10,2013-06-01 16:41:00,
2013-06-01 11:56:00,65.6,65.0,29.91,West,269,0.0,-999.0,97,-99.99,,,1.06,81,weatherlink.com 1.10,2013-06-01 16:56:00,
2013-06-01 12:11:00,65.7,65.0,29.90,West,261,0.0,-999.0,97,-99.99,,,1.06,192,weatherlink.com 1.10,2013-06-01 17:11:00,
2013-06-01 12:26:00,66.2,65.0,29.91,SW,225,5.0,-999.0,97,-99.99,,,1.06,257,weatherlink.com 1.10,2013-06-01 17:26:00,
2013-06-01 12:41:00,66.6,66.0,29.92,SW,227,0.0,-999.0,97,-99.99,,,1.06,186,weatherlink.com 1.10,2013-06-01 17:41:00,
2013-06-01 12:56:00,66.6,66.0,29.92,SW,226,1.0,-999.0,97,-99.99,,,1.06,158,weatherlink.com 1.10,2013-06-01 17:56:00,
2013-06-01 13:11:00,66.7,66.0,29.92,SW,226,4.0,-999.0,97,-99.99,,,1.06,162,weatherlink.com 1.10,2013-06-01 18:11:00,
2013-06-01 13:26:00,67.2,66.0,29.92,SW,226,0.0,-999.0,97,-99.99,,,1.06,239,weatherlink.com 1.10,2013-06-01 18:26:00,
2013-06-01 13:41:00,67.8,67.0,29.93,SW,224,2.0,-999.0,97,-99.99,,,1.06,311,weatherlink.com 1.10,2013-06-01 18:41:00,
2013-06-01 13:56:00,68.1,67.0,29.93,SW,227,0.0,-999.0,95,-99.99,,,1.06,213,weatherlink.com 1.10,2013-06-01 18:56:00,
2013-06-01 14:11:00,68.4,66.0,29.93,SW,228,0.0,-999.0,93,-99.99,,,1.06,301,weatherlink.com 1.10,2013-06-01 19:11:00,
2013-06-01 14:26:00,69.2,67.0,29.94,SW,223,6.0,-999.0,92,-99.99,,,1.06,369,weatherlink.com 1.10,2013-06-01 19:26:00,
2013-06-01 14:41:00,70.4,67.0,29.93,SW,225,0.0,-999.0,90,-99.99,,,1.06,575,weatherlink.com 1.10,2013-06-01 19:41:00,
2013-06-01 14:56:00,72.5,69.0,29.92,SW,215,6.0,-999.0,87,-99.99,,,1.06,559,weatherlink.com 1.10,2013-06-01 19:56:00,
2013-06-01 15:11:00,72.4,67.0,29.92,SW,215,6.0,-999.0,83,-99.99,,,1.06,608,weatherlink.com 1.10,2013-06-01 20:11:00,
2013-06-01 15:26:00,73.0,68.0,29.93,SW,236,6.0,-999.0,83,-99.99,,,1.06,838,weatherlink.com 1.10,2013-06-01 20:26:00,
2013-06-01 15:41:00,73.6,67.0,29.93,SW,230,4.0,-999.0,81,-99.99,,,1.06,450,weatherlink.com 1.10,2013-06-01 20:41:00,
2013-06-01 15:56:00,73.4,67.0,29.92,SW,217,1.0,-999.0,79,-99.99,,,1.06,338,weatherlink.com 1.10,2013-06-01 20:56:00,
2013-06-01 16:11:00,73.3,68.0,29.91,SW,221,0.0,-999.0,82,-99.99,,,1.06,439,weatherlink.com 1.10,2013-06-01 21:11:00,
2013-06-01 16:26:00,73.4,67.0,29.91,SW,224,0.0,-999.0,80,-99.99,,,1.06,394,weatherlink.com 1.10,2013-06-01 21:26:00,
2013-06-01 16:41:00,73.9,67.0,29.90,SSW,208,6.0,-999.0,79,-99.99,,,1.06,408,weatherlink.com 1.10,2013-06-01 21:41:00,
2013-06-01 16:56:00,74.1,67.0,29.91,SW,215,2.0,-999.0,78,-99.99,,,1.06,316,weatherlink.com 1.10,2013-06-01 21:56:00,
2013-06-01 17:11:00,74.1,68.0,29.90,SW,219,0.0,-999.0,80,-99.99,,,1.06,408,weatherlink.com 1.10,2013-06-01 22:11:00,
2013-06-01 17:26:00,74.2,67.0,29.90,SW,219,0.0,-999.0,79,-99.99,,,1.06,353,weatherlink.com 1.10,2013-06-01 22:26:00,
2013-06-01 17:41:00,74.0,67.0,29.90,SW,217,0.0,-999.0,79,-99.99,,,1.06,330,weatherlink.com 1.10,2013-06-01 22:41:00,
2013-06-01 17:56:00,73.9,67.0,29.89,SW,219,0.0,-999.0,79,-99.99,,,1.06,269,weatherlink.com 1.10,2013-06-01 22:56:00,
2013-06-01 18:11:00,73.8,67.0,29.90,SW,217,0.0,-999.0,80,-99.99,,,1.06,199,weatherlink.com 1.10,2013-06-01 23:11:00,
2013-06-01 18:26:00,73.7,68.0,29.89,SW,217,0.0,-999.0,81,-99.99,,,1.06,188,weatherlink.com 1.10,2013-06-01 23:26:00,
2013-06-01 18:41:00,73.7,68.0,29.89,SW,217,0.0,-999.0,81,-99.99,,,1.06,153,weatherlink.com 1.10,2013-06-01 23:41:00,
2013-06-01 18:56:00,73.9,68.0,29.89,SW,217,0.0,-999.0,81,-99.99,,,1.06,123,weatherlink.com 1.10,2013-06-01 23:56:00,
2013-06-01 19:11:00,74.6,68.0,29.90,SW,217,0.0,-999.0,80,-99.99,,,1.06,104,weatherlink.com 1.10,2013-06-02 00:11:00,
2013-06-01 19:26:00,74.3,68.0,29.90,SW,215,0.0,-999.0,81,-99.99,,,1.06,74,weatherlink.com 1.10,2013-06-02 00:26:00,
2013-06-01 19:41:00,73.4,68.0,29.90,SW,215,0.0,-999.0,82,-99.99,,,1.06,51,weatherlink.com 1.10,2013-06-02 00:41:00,
2013-06-01 19:56:00,72.5,68.0,29.91,SW,215,0.0,-999.0,85,-99.99,,,1.06,32,weatherlink.com 1.10,2013-06-02 00:56:00,
2013-06-01 20:11:00,71.7,67.0,29.92,SW,215,0.0,-999.0,86,-99.99,,,1.06,14,weatherlink.com 1.10,2013-06-02 01:11:00,
2013-06-01 20:26:00,70.7,67.0,29.92,SW,215,0.0,-999.0,88,-99.99,,,1.06,5,weatherlink.com 1.10,2013-06-02 01:26:00,
2013-06-01 20:41:00,69.8,67.0,29.92,SW,215,0.0,-999.0,89,-99.99,,,1.06,0,weatherlink.com 1.10,2013-06-02 01:41:00,
2013-06-01 20:56:00,69.4,67.0,29.93,West,262,7.0,-999.0,91,-99.99,,,1.06,0,weatherlink.com 1.10,2013-06-02 01:56:00,
2013-06-01 21:11:00,69.3,67.0,29.93,WNW,299,2.0,-999.0,92,-99.99,,,1.06,0,weatherlink.com 1.10,2013-06-02 02:11:00,
2013-06-01 21:26:00,69.3,67.0,29.94,WNW,299,0.0,-999.0,91,-99.99,,,1.06,0,weatherlink.com 1.10,2013-06-02 02:26:00,
2013-06-01 21:41:00,69.5,66.0,29.95,WNW,299,0.0,-999.0,88,-99.99,,,1.06,0,weatherlink.com 1.10,2013-06-02 02:41:00,
2013-06-01 21:56:00,69.5,65.0,29.96,WNW,299,4.0,-999.0,85,-99.99,,,1.06,0,weatherlink.com 1.10,2013-06-02 02:56:00,
2013-06-01 22:11:00,69.3,64.0,29.97,WNW,299,0.0,-999.0,82,-99.99,,,1.06,0,weatherlink.com 1.10,2013-06-02 03:11:00,
2013-06-01 22:26:00,69.2,64.0,29.98,WNW,299,4.0,-999.0,83,-99.99,,,1.06,0,weatherlink.com 1.10,2013-06-02 03:26:00,
2013-06-01 22:41:00,68.8,64.0,29.97,WNW,299,0.0,-999.0,83,-99.99,,,1.06,0,weatherlink.com 1.10,2013-06-02 03:41:00,
2013-06-01 22:57:00,68.1,62.0,29.98,WNW,299,6.0,-999.0,82,-99.99,,,1.06,0,weatherlink.com 1.10,2013-06-02 03:57:00,
2013-06-01 23:12:00,67.9,62.0,29.98,WNW,299,0.0,-999.0,81,-99.99,,,1.06,0,weatherlink.com 1.10,2013-06-02 04:12:00,
2013-06-01 23:27:00,67.4,61.0,29.98,WNW,299,0.0,-999.0,81,-99.99,,,1.06,0,weatherlink.com 1.10,2013-06-02 04:27:00,
2013-06-01 23:42:00,67.0,61.0,29.98,WNW,299,11.0,-999.0,80,-99.99,,,1.06,0,weatherlink.com 1.10,2013-06-02 04:42:00,
2013-06-01 23:57:00,66.6,60.0,29.99,WNW,299,0.0,-999.0,80,-99.99,,,1.06,0,weatherlink.com 1.10,2013-06-02 04:57:00,